Location: North Fort Myers
(26.6673°N, 81.8801°W)
Time: 12:02:45
(UTC+00:00)

ISS - Visible Passes

Search period start: 12 August 2022 00:00
Search period end: 22 August 2022 00:00
Orbit: 412 x 420 km, 51.6° (Epoch: 12 August)

Date Brightness Start Highest point End Pass type
(mag) Time Alt. Az. Time Alt. Az. Time Alt. Az.
17 Aug -1.0 10:28:36 10° SSE 10:30:33 15° SE 10:32:31 10° E visible
19 Aug -3.3 10:26:34 10° SSW 10:29:51 59° SE 10:33:09 10° NE visible
20 Aug -2.0 09:39:45 18° S 09:41:20 27° SE 09:44:12 10° ENE visible
21 Aug -0.8 08:53:36 12° ESE 08:53:36 12° ESE 08:54:29 10° E visible
21 Aug -2.7 10:26:32 12° WSW 10:29:17 32° NW 10:32:20 10° NNE visible
